This is the latest recevied weather packets stored in our database for station/object K6CEG. If no packets are shown the sender has not sent any weather packets the latest 10 day(s).
| Time | Temp. | Humidity | Pressure | Rain* | Wind** | Luminosity | Snow |
|---|---|---|---|---|---|---|---|
| 1788326270 | 19.44° C | 62% | 1017.3 hPa | 0 mm | - | 0 W/m² | - |
| 1788325969 | 19.44° C | 62% | 1017.2 hPa | 0 mm | - | 0 W/m² | - |
| 1788325664 | 20° C | 61% | 1017.5 hPa | 0 mm | - | 0 W/m² | - |
| 1788325360 | 20° C | 59% | 1017.1 hPa | 0 mm | - | 0 W/m² | - |
| 1788325059 | 20° C | 58% | 1017.1 hPa | 0 mm | - | 0 W/m² | - |
| 1788324755 | 20° C | 58% | 1017.2 hPa | 0 mm | - | 0 W/m² | - |
| 1788324451 | 20° C | 57% | 1016.9 hPa | 0 mm | - | 0 W/m² | - |
| 1788324146 | 20° C | 56% | 1016.8 hPa | 0 mm | - | 0 W/m² | - |
| 1788323841 | 20.56° C | 55% | 1016.8 hPa | 0 mm | - | 0 W/m² | - |
| 1788323537 | 20.56° C | 54% | 1017 hPa | 0 mm | - | 0 W/m² | - |
| 1788323236 | 20.56° C | 56% | 1016.7 hPa | 0 mm | - | 0 W/m² | - |
| 1788322931 | 20.56° C | 55% | 1016.6 hPa | 0 mm | - | 0 W/m² | - |
| 1788322626 | 20.56° C | 56% | 1016.5 hPa | 0 mm | - | 0 W/m² | - |
| 1788322321 | 21.11° C | 56% | 1016.4 hPa | 0 mm | - | 0 W/m² | - |
| 1788322020 | 21.11° C | 57% | 1016.6 hPa | 0 mm | - | 0 W/m² | - |
| 1788321716 | 21.11° C | 61% | 1016.4 hPa | 0 mm | - | 0 W/m² | - |
| 1788321414 | 21.11° C | 62% | 1016.3 hPa | 0 mm | - | 0 W/m² | - |
| 1788321109 | 21.11° C | 62% | 1016.3 hPa | 0 mm | - | 0 W/m² | - |
| 1788320812 | 21.11° C | 62% | 1016.2 hPa | 0 mm | - | 0 W/m² | - |
| 1788320508 | 21.67° C | 61% | 1016.1 hPa | 0 mm | - | 0 W/m² | - |
| 1788320207 | 21.67° C | 60% | 1016.1 hPa | 0 mm | - | 0 W/m² | - |
| 1788319902 | 21.67° C | 59% | 1016 hPa | 0 mm | - | 0 W/m² | - |
| 1788319601 | 21.67° C | 59% | 1015.9 hPa | 0 mm | - | 0 W/m² | - |
| 1788319296 | 22.22° C | 58% | 1016.1 hPa | 0 mm | - | 0 W/m² | - |
| 1788318996 | 22.22° C | 57% | 1015.7 hPa | 0 mm | - | 0 W/m² | - |
* Rain latest hour (hover to see other rain measurements)
** Current wind speed in m/s (hover to see current wind gust speed)